Wind_Speed
36 35 22 21 16 11 9 11 10 16 23 27 23 27 27 20 22 22 21 21 24 27 27 27 30 32 30 29 29 27 27 31 28 29 32 32 33 32 26 21 17 18 21
29 25 32 28 27 20 15 17 18 13 15 18 19 23 25 24 24 24 25 21 19 23 28 33 32 29 31 31 28 29 31 30 33 34 32 30 27 21 17 17 16 15 14
29 29 25 20 20 21 20 19 17 14 14 12 11 14 16 17 21 20 22 17 21 23 24 25 26 23 22 25 26 26 26 28 30 30 28 25 19 17 16 16 17 14 11
21 21 24 24 21 17 16 14 14 15 13 9 5 4 3 4 5 12 10 7 8 11 14 15 17 19 17 19 23 25 27 29 29 29 25 20 18 19 18 19 16 10 8
37 31 19 15 17 18 18 12 11 10 9 9 9 9 7 8 9 12 11 12 13 13 13 13 14 17 19 20 21 24 28 29 29 29 24 18 18 15 14 8 6 7 6
31 31 35 31 16 9 12 14 15 14 13 10 7 5 3 2 3 4 5 7 9 11 14 15 16 15 15 16 20 24 25 30 33 24 11 12 12 9 6 6 7 7 6
26 26 27 29 31 28 15 6 6 7 7 7 6 5 3 2 3 5 7 8 10 10 11 11 13 14 13 16 18 20 21 19 12 4 5 6 7 3 6 7 7 5 5
21 22 24 24 23 25 26 22 18 13 10 7 5 2 1 2 3 4 6 8 10 10 9 11 11 13 15 16 15 15 16 15 10 5 2 2 5 6 7 6 4 5 8
17 17 17 18 20 20 18 18 20 20 18 15 12 9 6 5 6 6 6 6 6 5 6 6 8 9 11 12 13 12 10 10 7 4 3 4 5 5 4 4 6 9 12
12 14 17 17 15 14 14 15 13 12 11 11 10 10 9 9 7 6 6 5 6 7 6 7 7 9 9 10 11 10 9 7 5 2 1 2 4 5 6 7 9 12 15
10 11 12 14 16 14 13 12 12 11 10 8 8 7 6 5 4 5 6 7 8 8 8 7 8 9 10 10 9 9 8 5 3 1 5 6 7 9 10 11 14 17 18
8 9 10 10 11 14 15 14 11 11 11 11 12 11 11 11 12 12 12 13 13 13 12 12 12 12 12 12 12 12 12 10 8 8 10 11 12 12 14 16 19 22 23
13 12 11 10 12 13 13 15 16 17 15 14 15 15 15 16 15 15 16 17 16 16 16 14 15 15 16 15 15 15 15 14 14 15 16 17 18 18 20 22 25 26 27
17 16 14 12 11 12 14 15 15 16 18 17 16 17 18 18 19 19 18 19 19 20 20 18 18 19 20 20 21 22 22 23 23 23 24 23 23 24 27 30 32 33 33
21 21 20 19 18 17 15 16 17 19 21 22 22 22 23 22 21 21 21 22 21 22 23 22 21 21 22 24 25 27 27 27 28 28 29 29 30 32 34 36 38 39 39
25 24 22 23 23 22 22 21 20 20 21 23 25 26 26 27 27 26 25 25 27 27 26 28 28 26 23 23 26 29 29 30 31 32 34 35 37 39 40 42 43 43 44
32 30 28 28 27 27 27 27 28 27 27 27 27 28 28 30 31 31 29 29 30 32 33 33 32 32 33 35 31 29 32 35 35 37 39 41 43 44 46 47 48 48 49
38 38 36 35 34 33 32 32 32 33 33 34 33 32 32 34 34 32 33 33 33 34 36 37 37 38 38 39 38 37 35 34 35 38 42 47 51 53 53 54 57 60 60
39 41 43 42 40 39 39 38 38 38 39 40 41 39 40 39 37 36 38 38 39 38 38 39 40 42 41 40 40 41 41 39 38 38 40 43 46 49 51 52 53 55 57
45 44 45 48 48 48 48 46 44 44 43 45 46 48 47 45 44 43 42 42 43 44 43 43 44 44 43 42 43 43 44 44 45 47 46 45 47 49 51 54 57 58 56
46 49 50 51 53 56 56 56 55 52 51 50 50 52 53 52 51 50 48 48 49 48 47 47 48 46 46 46 47 47 47 48 49 50 48 50 50 51 49 47 50 55 59
48 47 47 48 50 53 53 53 55 58 60 60 59 58 59 58 58 58 56 54 55 54 52 52 52 52 51 52 51 52 52 52 52 53 55 55 56 57 56 56 51 49 51
53 54 54 55 54 55 55 55 55 56 57 56 58 61 61 60 63 65 65 65 65 62 60 60 57 58 59 57 56 56 56 55 56 56 56 55 55 56 58 57 56 52 49
54 54 55 55 58 58 58 59 59 57 56 59 62 62 60 61 64 66 66 69 69 67 67 67 67 66 65 66 62 62 62 61 60 58 59 58 57 57 57 59 57 54 52
54 55 55 55 56 56 57 58 58 61 63 63 63 60 59 60 61 61 62 65 68 68 68 71 73 73 70 68 66 65 65 65 65 63 62 61 60 60 60 60 61 59 56
50 52 53 52 53 54 54 54 54 53 55 56 57 58 59 59 60 57 56 58 62 64 65 65 65 67 68 66 66 65 65 65 65 66 67 65 65 64 63 62 61 62 61
Wind_Direction
46 72 102 92 97 110 141 157 187 195 205 209 205 208 215 214 223 231 234 243 249 249 260 263 272 277 279 280 273 263 252 252 258 277 290 309 316 318 315 310 295 267 278
49 46 54 63 65 93 85 86 114 123 176 190 191 197 203 218 223 236 243 244 254 257 259 264 265 268 272 268 251 250 266 284 286 303 313 308 301 296 282 268 267 268 266
51 55 57 65 77 75 69 58 48 67 114 132 166 192 202 223 233 241 246 243 259 253 261 268 251 248 285 293 307 314 315 304 295 292 290 289 284 274 259 276 269 275 273
44 53 60 61 62 75 77 82 85 73 58 55 62 64 157 205 211 211 228 268 301 320 328 318 328 330 324 311 300 293 292 292 291 290 288 276 279 261 261 273 278 283 289
43 44 43 57 67 68 68 71 74 81 85 86 81 70 50 15 357 345 350 338 338 330 329 309 298 289 291 298 301 304 302 300 302 294 282 266 252 248 264 268 262 281 277
34 37 42 46 48 60 76 76 73 72 74 73 68 60 38 20 360 340 321 307 307 305 301 295 295 294 299 305 313 311 311 309 301 297 265 240 234 236 235 240 262 292 287
25 28 34 41 44 48 50 63 83 84 84 87 85 76 57 24 333 322 306 295 287 288 289 292 296 299 307 312 325 332 330 333 345 330 258 258 252 317 255 265 286 274 289
12 21 26 31 37 46 47 57 63 65 66 66 62 46 350 322 320 326 320 317 309 306 305 305 310 307 314 320 335 343 349 12 37 63 51 311 281 258 268 280 272 282 299
358 1 9 20 27 32 38 45 54 59 58 55 51 44 28 4 341 336 337 332 323 321 338 331 326 325 328 337 337 332 351 13 18 3 290 263 261 261 264 272 292 302 317
342 348 348 351 6 12 17 23 26 40 47 54 62 63 55 58 62 67 61 39 18 21 18 17 9 5 356 354 357 351 346 350 15 360 331 224 234 254 271 279 294 306 312
315 322 327 335 337 344 352 3 6 5 5 360 355 355 348 352 351 348 346 340 335 336 340 334 333 334 335 338 338 340 347 360 17 222 214 222 237 261 270 282 299 304 305
264 289 300 308 313 318 321 327 334 331 330 333 334 330 326 322 322 322 318 315 316 322 323 320 322 324 324 323 326 324 319 308 288 264 262 258 254 259 271 288 298 299 300
239 249 263 281 288 297 300 299 304 303 303 306 309 310 307 304 303 302 305 306 305 307 307 302 302 303 303 304 304 303 299 294 290 284 281 279 279 279 280 286 290 293 296
239 237 238 246 254 263 274 278 284 289 293 293 291 294 296 298 299 299 298 293 291 293 295 295 292 290 289 292 294 292 288 286 284 282 282 278 276 278 282 287 291 293 295
244 244 243 242 243 249 255 262 265 268 273 277 282 285 288 289 286 288 293 295 291 290 291 293 288 281 285 288 288 289 289 286 284 283 282 281 282 282 285 290 294 294 295
248 248 248 248 249 250 254 254 256 258 263 266 269 272 274 276 278 282 285 290 292 293 289 289 294 295 288 284 280 282 284 286 287 288 287 285 283 284 287 290 291 291 292
253 251 251 252 253 254 256 256 254 252 252 256 260 264 267 269 269 270 274 277 282 283 282 286 289 291 293 295 294 280 274 275 277 278 280 282 284 286 288 290 291 290 290
257 260 257 255 256 256 256 256 256 256 254 256 258 260 260 262 265 266 268 268 271 273 274 279 281 286 289 293 295 294 288 278 274 275 277 279 279 279 281 283 286 286 283
253 256 261 263 262 261 260 259 258 257 259 258 259 258 258 258 260 261 261 261 266 270 267 268 271 276 279 282 286 290 292 290 283 278 273 274 276 277 280 283 285 287 289
263 254 255 259 261 262 262 260 260 260 259 260 261 260 260 260 260 260 260 259 262 266 266 265 267 271 274 275 278 281 286 289 290 291 290 287 281 277 276 275 279 283 283
273 272 272 276 277 272 270 270 264 259 260 260 261 261 262 263 264 262 261 261 260 263 267 266 267 269 272 274 276 277 280 283 286 289 289 289 290 294 293 291 283 281 284
269 271 274 275 275 274 273 274 274 274 275 271 263 262 262 260 259 262 263 263 263 263 264 266 267 268 269 272 274 276 278 279 280 283 285 288 289 292 295 296 296 289 287
268 270 270 270 268 270 271 269 268 271 274 274 274 273 272 273 273 268 262 260 262 262 261 263 266 270 272 273 274 274 276 278 278 279 282 286 287 289 290 291 292 294 292
266 266 267 269 272 273 274 272 269 266 264 268 272 273 274 278 278 277 275 273 272 269 266 264 265 266 269 273 276 276 275 277 280 280 281 283 286 288 289 288 287 288 287
269 270 271 271 271 271 273 273 272 269 269 268 271 275 275 276 277 277 278 281 278 275 273 272 272 272 272 276 280 280 280 280 280 280 279 280 284 287 288 288 287 284 285
272 273 273 273 274 274 273 274 273 272 273 273 273 274 274 275 274 274 278 280 279 277 278 279 280 278 277 278 279 279 277 276 279 281 280 280 282 283 286 287 287 286 284
Height
5661 5658 5657 5657 5659 5662 5666 5669 5671 5673 5677 5683 5688 5695 5700 5705 5710 5714 5717 5720 5721 5722 5722 5724 5723 5722 5722 5721 5719 5719 5718 5717 5714 5713 5711 5708 5705 5703 5700 5698 5697 5696 5694
5671 5668 5664 5663 5664 5666 5669 5670 5670 5672 5676 5681 5686 5691 5697 5703 5707 5711 5713 5715 5716 5716 5717 5717 5717 5716 5715 5714 5713 5713 5710 5709 5707 5704 5701 5699 5697 5696 5694 5694 5692 5691 5690
5680 5676 5674 5673 5672 5671 5672 5672 5673 5676 5679 5682 5687 5692 5696 5699 5702 5706 5708 5710 5711 5711 5712 5712 5710 5709 5709 5708 5708 5706 5704 5703 5700 5697 5695 5692 5691 5691 5689 5689 5689 5687 5687
5685 5684 5681 5679 5678 5678 5678 5678 5679 5680 5682 5685 5688 5691 5694 5697 5699 5701 5703 5704 5705 5705 5707 5706 5706 5705 5705 5705 5704 5701 5698 5696 5693 5690 5688 5688 5688 5687 5686 5686 5686 5685 5685
5693 5689 5686 5685 5684 5683 5682 5682 5683 5685 5687 5688 5690 5692 5695 5697 5698 5700 5700 5701 5701 5702 5703 5703 5702 5702 5701 5700 5698 5695 5692 5688 5684 5681 5680 5681 5681 5682 5683 5683 5684 5683 5683
5701 5696 5693 5689 5687 5686 5686 5686 5687 5687 5688 5691 5693 5694 5696 5697 5698 5699 5700 5700 5700 5700 5700 5699 5698 5698 5696 5694 5692 5689 5685 5681 5676 5673 5673 5674 5677 5679 5680 5679 5680 5681 5682
5708 5704 5700 5697 5694 5691 5689 5689 5690 5691 5692 5694 5695 5695 5696 5697 5698 5698 5699 5699 5699 5698 5698 5696 5696 5695 5693 5691 5688 5686 5682 5676 5671 5671 5673 5676 5676 5678 5678 5679 5678 5680 5680
5710 5708 5705 5704 5701 5699 5697 5694 5692 5692 5692 5693 5694 5695 5696 5696 5697 5698 5697 5697 5696 5696 5695 5695 5693 5693 5691 5689 5685 5682 5680 5676 5674 5673 5674 5675 5676 5676 5678 5678 5678 5678 5678
5713 5711 5709 5707 5705 5704 5703 5701 5699 5697 5697 5697 5696 5696 5695 5696 5696 5696 5696 5695 5694 5693 5691 5691 5690 5689 5688 5686 5683 5681 5679 5677 5675 5674 5675 5675 5675 5677 5677 5677 5678 5677 5676
5714 5713 5712 5710 5708 5707 5706 5705 5703 5702 5701 5700 5699 5698 5698 5697 5696 5696 5696 5695 5693 5692 5691 5690 5689 5687 5686 5683 5681 5680 5679 5677 5675 5675 5674 5674 5675 5676 5676 5676 5676 5675 5674
5713 5712 5711 5710 5710 5708 5706 5705 5704 5703 5703 5702 5701 5700 5699 5698 5697 5696 5696 5694 5693 5692 5692 5690 5688 5686 5684 5682 5680 5679 5678 5677 5676 5674 5674 5674 5675 5675 5675 5674 5673 5672 5670
5709 5708 5708 5708 5708 5707 5706 5705 5703 5702 5701 5700 5700 5699 5698 5697 5696 5695 5694 5694 5692 5691 5690 5689 5687 5685 5683 5682 5680 5679 5677 5676 5675 5674 5674 5673 5672 5672 5672 5671 5670 5669 5666
5704 5704 5703 5703 5703 5703 5702 5702 5702 5701 5700 5698 5697 5696 5695 5694 5693 5692 5691 5690 5689 5686 5685 5684 5683 5682 5681 5679 5678 5677 5676 5674 5673 5672 5672 5671 5670 5669 5668 5667 5665 5663 5660
5698 5698 5697 5697 5697 5697 5697 5696 5696 5696 5695 5694 5693 5692 5691 5690 5688 5687 5685 5684 5683 5682 5680 5679 5677 5676 5675 5675 5674 5672 5671 5670 5669 5668 5667 5666 5664 5664 5662 5661 5659 5657 5654
5693 5692 5692 5691 5691 5691 5690 5690 5690 5689 5688 5688 5687 5687 5685 5684 5682 5681 5680 5679 5677 5675 5673 5672 5671 5670 5669 5668 5667 5665 5664 5663 5661 5661 5660 5659 5658 5656 5655 5653 5651 5648 5646
5687 5686 5686 5685 5685 5684 5684 5683 5682 5682 5680 5679 5679 5678 5678 5677 5675 5674 5673 5672 5671 5669 5667 5665 5663 5661 5660 5659 5658 5657 5656 5654 5654 5653 5652 5651 5649 5646 5645 5643 5640 5638 5636
5679 5679 5679 5678 5677 5676 5675 5675 5674 5674 5672 5671 5670 5669 5669 5668 5667 5667 5665 5664 5662 5660 5658 5657 5654 5652 5651 5649 5648 5646 5645 5644 5644 5644 5642 5640 5638 5636 5635 5633 5630 5627 5624
5669 5669 5668 5667 5667 5667 5666 5665 5664 5664 5663 5661 5660 5660 5658 5657 5657 5657 5656 5654 5652 5649 5648 5647 5645 5643 5641 5640 5639 5637 5635 5633 5632 5631 5629 5627 5625 5623 5621 5619 5616 5613 5610
5658 5658 5657 5657 5657 5656 5655 5655 5654 5653 5652 5651 5649 5648 5645 5645 5645 5645 5643 5642 5640 5639 5635 5634 5633 5631 5630 5629 5626 5624 5622 5620 5618 5616 5614 5613 5611 5609 5607 5604 5600 5598 5595
5644 5644 5645 5644 5644 5643 5643 5643 5642 5640 5640 5639 5638 5636 5634 5634 5633 5632 5631 5630 5628 5625 5623 5621 5620 5619 5617 5615 5613 5612 5610 5607 5605 5604 5601 5598 5595 5592 5591 5588 5586 5582 5580
5630 5630 5631 5631 5630 5629 5629 5628 5627 5626 5626 5625 5624 5622 5622 5622 5621 5619 5618 5617 5615 5613 5611 5609 5607 5606 5605 5603 5600 5598 5597 5595 5592 5589 5586 5584 5581 5579 5576 5572 5569 5567 5565
5616 5616 5616 5615 5614 5614 5613 5613 5613 5612 5611 5609 5607 5606 5605 5605 5604 5603 5603 5601 5599 5598 5597 5595 5593 5591 5590 5588 5586 5584 5582 5579 5577 5575 5573 5570 5568 5565 5561 5558 5555 5553 5549
5600 5600 5600 5600 5598 5597 5596 5595 5594 5594 5594 5593 5592 5591 5590 5589 5587 5585 5583 5582 5581 5580 5579 5578 5577 5574 5572 5571 5570 5569 5567 5564 5560 5558 5557 5555 5552 5549 5545 5542 5539 5536 5534
5583 5582 5581 5581 5581 5581 5579 5578 5576 5576 5575 5574 5573 5572 5571 5570 5569 5567 5565 5564 5563 5562 5560 5559 5557 5556 5554 5552 5552 5550 5548 5545 5543 5541 5539 5538 5535 5532 5530 5527 5524 5520 5518
5568 5567 5565 5564 5562 5560 5560 5560 5559 5557 5556 5555 5554 5553 5552 5551 5549 5548 5547 5545 5544 5543 5541 5540 5537 5535 5535 5534 5533 5532 5530 5527 5524 5522 5520 5518 5517 5515 5512 5510 5508 5505 5502
5552 5552 5551 5549 5547 5546 5543 5543 5541 5540 5539 5538 5536 5534 5533 5531 5529 5527 5526 5525 5524 5523 5521 5519 5518 5517 5515 5515 5513 5511 5509 5507 5504 5502 5500 5498 5497 5495 5493 5490 5488 5486 5484